APX752 EGPF-EGKB

Flight info

Callsign APX752
Flight time 1h 14m
Altitude 25000
Route NORBO T256 RIPNO/N0409F350 DCT AKOMU DCT VAMEB UL612 LISTO
Aircraft C25B/M-SDE2E3FGHRWXY/LB1

Departure

Time 2026-04-26 14:18
Airport Glasgow Airport (EGPF)

Arrival

Time 2026-04-26 15:32
Airport London Biggin Hill Airport (EGKB)
Time Latitude Longitude Altitude Speed Heading
2026-04-26 14:08 55.87167 -4.42561 24 ft 0 kts 49°
2026-04-26 14:15 55.87173 -4.42551 24 ft 5 kts 30°
2026-04-26 14:15 55.87205 -4.42575 25 ft 6 kts 323°
2026-04-26 14:16 55.87231 -4.42663 24 ft 11 kts 292°
2026-04-26 14:16 55.87292 -4.42658 24 ft 15 kts 21°
2026-04-26 14:16 55.87411 -4.42561 24 ft 20 kts 40°
2026-04-26 14:16 55.87503 -4.42376 24 ft 20 kts 46°
2026-04-26 14:17 55.87605 -4.42200 24 ft 21 kts 43°
2026-04-26 14:17 55.87724 -4.42179 25 ft 19 kts 327°
2026-04-26 14:17 55.87755 -4.42284 24 ft 9 kts 228°
2026-04-26 14:17 55.87575 -4.42618 24 ft 90 kts 226°
2026-04-26 14:18 55.86923 -4.43831 454 ft 163 kts 226°
2026-04-26 14:18 55.86056 -4.45448 1837 ft 187 kts 226°
2026-04-26 14:18 55.85101 -4.47125 3301 ft 195 kts 224°
2026-04-26 14:18 55.84113 -4.48831 4209 ft 200 kts 225°
2026-04-26 14:19 55.83132 -4.50611 5128 ft 203 kts 226°
2026-04-26 14:19 55.82103 -4.52456 5732 ft 221 kts 225°
2026-04-26 14:19 55.80941 -4.54503 6094 ft 250 kts 225°
2026-04-26 14:19 55.79681 -4.56755 6936 ft 258 kts 225°
2026-04-26 14:20 55.78406 -4.58995 7982 ft 258 kts 225°
2026-04-26 14:20 55.77131 -4.61267 8976 ft 261 kts 225°
2026-04-26 14:20 55.75835 -4.63537 9976 ft 263 kts 225°
2026-04-26 14:20 55.74540 -4.65847 10861 ft 265 kts 225°
2026-04-26 14:21 55.73214 -4.68168 11679 ft 269 kts 225°
2026-04-26 14:21 55.71861 -4.70504 12475 ft 274 kts 224°
2026-04-26 14:21 55.70467 -4.72842 13269 ft 277 kts 225°
2026-04-26 14:21 55.68922 -4.74907 13965 ft 286 kts 205°
2026-04-26 14:22 55.66964 -4.75765 14619 ft 295 kts 189°
2026-04-26 14:22 55.64896 -4.75937 15275 ft 300 kts 185°
2026-04-26 14:22 55.62798 -4.76007 15953 ft 304 kts 184°
2026-04-26 14:22 55.60672 -4.75498 16582 ft 314 kts 169°
2026-04-26 14:23 55.58619 -4.74232 17221 ft 322 kts 158°
2026-04-26 14:23 55.56710 -4.72077 17870 ft 331 kts 146°
2026-04-26 14:23 55.54909 -4.69497 18504 ft 335 kts 144°
2026-04-26 14:23 55.53086 -4.66882 19076 ft 339 kts 144°
2026-04-26 14:24 55.51253 -4.64238 19669 ft 342 kts 145°
2026-04-26 14:24 55.49393 -4.61600 20266 ft 345 kts 145°
2026-04-26 14:24 55.47525 -4.58924 20872 ft 348 kts 145°
2026-04-26 14:24 55.45631 -4.56236 21470 ft 350 kts 145°
2026-04-26 14:25 55.43729 -4.53517 22062 ft 353 kts 145°
2026-04-26 14:25 55.41808 -4.50791 22677 ft 356 kts 145°
2026-04-26 14:25 55.39873 -4.48038 23278 ft 359 kts 144°
2026-04-26 14:25 55.37917 -4.45274 23867 ft 362 kts 145°
2026-04-26 14:26 55.35948 -4.42478 24370 ft 365 kts 145°
2026-04-26 14:26 55.33966 -4.39677 24918 ft 366 kts 146°
2026-04-26 14:26 55.31973 -4.36862 25442 ft 369 kts 145°
2026-04-26 14:26 55.29962 -4.34026 25961 ft 371 kts 146°
2026-04-26 14:27 55.27936 -4.31174 26484 ft 374 kts 146°
2026-04-26 14:27 55.25906 -4.28314 26991 ft 376 kts 146°
2026-04-26 14:27 55.23850 -4.25435 27511 ft 379 kts 146°
2026-04-26 14:27 55.21787 -4.22530 28027 ft 382 kts 147°
2026-04-26 14:28 55.19705 -4.19622 28543 ft 384 kts 147°
2026-04-26 14:28 55.17630 -4.16646 29040 ft 388 kts 143°
2026-04-26 14:28 55.15761 -4.13170 29505 ft 395 kts 138°
2026-04-26 14:28 55.13887 -4.09724 29968 ft 396 kts 140°
2026-04-26 14:29 55.11963 -4.06260 30412 ft 399 kts 140°
2026-04-26 14:29 55.10049 -4.02728 30780 ft 402 kts 139°
2026-04-26 14:29 55.08125 -3.99155 31138 ft 405 kts 139°
2026-04-26 14:29 55.06178 -3.95574 31471 ft 408 kts 140°
2026-04-26 14:30 55.04204 -3.91978 31825 ft 411 kts 140°
2026-04-26 14:30 55.02226 -3.88352 32160 ft 414 kts 140°
2026-04-26 14:30 55.00227 -3.84699 32488 ft 417 kts 140°
2026-04-26 14:30 54.98219 -3.81027 32812 ft 420 kts 141°
2026-04-26 14:31 54.96179 -3.77321 33031 ft 426 kts 140°
2026-04-26 14:31 54.94030 -3.73810 33296 ft 421 kts 149°
2026-04-26 14:31 54.91628 -3.70964 33644 ft 416 kts 156°
2026-04-26 14:31 54.89177 -3.68364 33931 ft 419 kts 156°
2026-04-26 14:32 54.86682 -3.65721 34230 ft 421 kts 156°
2026-04-26 14:32 54.81671 -3.60380 34568 ft 424 kts 156°
2026-04-26 14:32 54.79199 -3.57753 35249 ft 415 kts 156°
2026-04-26 14:33 54.76708 -3.55127 35269 ft 419 kts 156°
2026-04-26 14:33 54.71785 -3.49920 35269 ft 411 kts 156°
2026-04-26 14:34 54.67756 -3.45675 35271 ft 406 kts 156°
2026-04-26 14:34 54.62900 -3.40576 35268 ft 408 kts 155°
2026-04-26 14:35 54.58055 -3.35492 35265 ft 407 kts 156°
2026-04-26 14:35 54.53218 -3.30440 35265 ft 406 kts 156°
2026-04-26 14:36 54.48384 -3.25403 35273 ft 405 kts 156°
2026-04-26 14:36 54.43561 -3.20392 35263 ft 405 kts 155°
2026-04-26 14:37 54.38729 -3.15378 35266 ft 405 kts 155°
2026-04-26 14:37 54.33901 -3.10391 35273 ft 404 kts 155°
2026-04-26 14:38 54.29114 -3.05459 35270 ft 405 kts 155°
2026-04-26 14:38 54.24282 -3.00492 35279 ft 405 kts 155°
2026-04-26 14:39 54.19452 -2.95542 35265 ft 404 kts 155°
2026-04-26 14:39 54.14481 -2.91264 35264 ft 397 kts 164°
2026-04-26 14:40 54.09409 -2.87511 35265 ft 397 kts 163°
2026-04-26 14:40 54.04326 -2.83834 35265 ft 397 kts 163°
2026-04-26 14:41 53.99237 -2.80137 35268 ft 397 kts 163°
2026-04-26 14:41 53.94153 -2.76453 35266 ft 397 kts 163°
2026-04-26 14:42 53.89071 -2.72779 35264 ft 397 kts 163°
2026-04-26 14:42 53.84009 -2.69134 35266 ft 397 kts 163°
2026-04-26 14:43 53.78891 -2.65457 35268 ft 397 kts 163°
2026-04-26 14:43 53.73824 -2.61828 35268 ft 397 kts 163°
2026-04-26 14:44 53.68728 -2.58185 35263 ft 397 kts 162°
2026-04-26 14:44 53.63625 -2.54551 35262 ft 398 kts 162°
2026-04-26 14:45 53.58507 -2.50911 35263 ft 399 kts 162°
2026-04-26 14:45 53.53413 -2.47299 35266 ft 400 kts 162°
2026-04-26 14:46 53.48283 -2.43671 35269 ft 400 kts 162°
2026-04-26 14:46 53.43149 -2.40051 35289 ft 400 kts 162°
2026-04-26 14:47 53.38019 -2.36441 35291 ft 400 kts 162°
2026-04-26 14:47 53.32886 -2.32842 35292 ft 400 kts 163°
2026-04-26 14:48 53.27787 -2.29273 35289 ft 400 kts 163°
2026-04-26 14:48 53.22649 -2.25689 35277 ft 400 kts 162°
2026-04-26 14:49 53.17520 -2.22121 35282 ft 399 kts 162°
2026-04-26 14:49 53.12582 -2.17779 35279 ft 407 kts 149°
2026-04-26 14:50 53.08021 -2.12198 35280 ft 407 kts 148°
2026-04-26 14:50 53.03478 -2.06673 35279 ft 407 kts 148°
2026-04-26 14:51 52.98902 -2.01121 35261 ft 407 kts 148°
2026-04-26 14:51 52.94330 -1.95586 35279 ft 407 kts 148°
2026-04-26 14:52 52.89744 -1.90051 35280 ft 407 kts 148°
2026-04-26 14:52 52.85159 -1.84532 35282 ft 407 kts 148°
2026-04-26 14:53 52.80601 -1.79060 35287 ft 407 kts 148°
2026-04-26 14:53 52.76013 -1.73568 35287 ft 407 kts 148°
2026-04-26 14:54 52.71153 -1.68965 35269 ft 401 kts 156°
2026-04-26 14:54 52.66187 -1.64633 35267 ft 401 kts 156°
2026-04-26 14:55 52.61260 -1.60425 35266 ft 401 kts 156°
2026-04-26 14:55 52.56315 -1.56177 35265 ft 401 kts 156°
2026-04-26 14:56 52.51364 -1.51952 35258 ft 401 kts 156°
2026-04-26 14:56 52.46422 -1.47740 35282 ft 400 kts 156°
2026-04-26 14:57 52.41476 -1.43537 35281 ft 401 kts 156°
2026-04-26 14:57 52.36519 -1.39335 35302 ft 401 kts 156°
2026-04-26 14:58 52.31566 -1.35104 35307 ft 402 kts 153°
2026-04-26 14:58 52.29301 -1.32386 35310 ft 407 kts 142°
2026-04-26 14:58 52.27334 -1.29041 35304 ft 410 kts 132°
2026-04-26 14:59 52.23680 -1.21904 35317 ft 410 kts 133°
2026-04-26 14:59 52.20031 -1.14812 35312 ft 410 kts 133°
2026-04-26 15:00 52.16365 -1.07674 35301 ft 411 kts 131°
2026-04-26 15:00 52.14831 -1.03717 35295 ft 415 kts 119°
2026-04-26 15:00 52.13749 -0.99361 35288 ft 418 kts 108°
2026-04-26 15:00 52.13146 -0.94708 35108 ft 424 kts 98°
2026-04-26 15:01 52.13057 -0.89830 34575 ft 438 kts 89°
2026-04-26 15:01 52.13105 -0.84790 33956 ft 450 kts 90°
2026-04-26 15:01 52.13137 -0.79675 33355 ft 449 kts 90°
2026-04-26 15:01 52.13149 -0.74647 32771 ft 439 kts 90°
2026-04-26 15:02 52.13171 -0.69730 32198 ft 431 kts 90°
2026-04-26 15:02 52.13193 -0.64895 31634 ft 424 kts 90°
2026-04-26 15:02 52.13212 -0.60112 31077 ft 418 kts 90°
2026-04-26 15:02 52.13224 -0.55465 30537 ft 414 kts 91°
2026-04-26 15:03 52.13236 -0.50806 29956 ft 409 kts 91°
2026-04-26 15:03 52.13248 -0.46210 29414 ft 403 kts 91°
2026-04-26 15:03 52.13257 -0.41676 28884 ft 398 kts 91°
2026-04-26 15:03 52.13265 -0.37195 28362 ft 394 kts 91°
2026-04-26 15:04 52.13268 -0.32746 27843 ft 392 kts 91°
2026-04-26 15:04 52.13273 -0.28286 27319 ft 394 kts 91°
2026-04-26 15:04 52.13274 -0.23815 26801 ft 396 kts 91°
2026-04-26 15:04 52.13277 -0.19332 26278 ft 397 kts 91°
2026-04-26 15:05 52.13272 -0.14830 25755 ft 397 kts 91°
2026-04-26 15:05 52.13273 -0.11857 25407 ft 397 kts 91°
2026-04-26 15:05 52.13264 -0.05846 24705 ft 397 kts 91°
2026-04-26 15:05 52.13261 -0.01358 24184 ft 396 kts 91°
2026-04-26 15:06 52.13248 0.03117 23634 ft 395 kts 91°
2026-04-26 15:06 52.13246 0.07576 23097 ft 392 kts 91°
2026-04-26 15:06 52.13228 0.11946 22589 ft 388 kts 91°
2026-04-26 15:06 52.13116 0.16286 22290 ft 378 kts 99°
2026-04-26 15:07 52.12421 0.24544 22285 ft 360 kts 97°
2026-04-26 15:07 52.12111 0.28552 22286 ft 354 kts 99°
2026-04-26 15:07 52.11769 0.32496 22284 ft 350 kts 99°
2026-04-26 15:08 52.11439 0.36397 22284 ft 346 kts 99°
2026-04-26 15:08 52.11116 0.40257 22283 ft 343 kts 99°
2026-04-26 15:08 52.10799 0.44132 22019 ft 348 kts 99°
2026-04-26 15:08 52.10463 0.48071 21637 ft 355 kts 99°
2026-04-26 15:09 52.10041 0.52063 21227 ft 361 kts 101°
2026-04-26 15:09 52.09589 0.56105 20813 ft 366 kts 101°
2026-04-26 15:09 52.09155 0.60156 20406 ft 370 kts 101°
2026-04-26 15:09 52.08705 0.64298 19978 ft 373 kts 101°
2026-04-26 15:10 52.08237 0.68458 19541 ft 375 kts 101°
2026-04-26 15:10 52.07927 0.71236 19259 ft 376 kts 101°
2026-04-26 15:10 52.07302 0.76853 18674 ft 378 kts 101°
2026-04-26 15:10 52.06830 0.81056 18211 ft 377 kts 101°
2026-04-26 15:11 52.06058 0.85062 17765 ft 374 kts 115°
2026-04-26 15:11 52.04884 0.88840 17334 ft 371 kts 119°
2026-04-26 15:11 52.03681 0.92553 16899 ft 370 kts 120°
2026-04-26 15:11 52.02455 0.96222 16471 ft 369 kts 120°
2026-04-26 15:12 52.01247 0.99896 16045 ft 369 kts 119°
2026-04-26 15:12 52.00060 1.03529 15623 ft 368 kts 119°
2026-04-26 15:12 51.98859 1.07198 15198 ft 368 kts 119°
2026-04-26 15:12 51.97646 1.10857 14773 ft 367 kts 119°
2026-04-26 15:13 51.96443 1.14511 14343 ft 367 kts 119°
2026-04-26 15:13 51.95236 1.18157 13903 ft 366 kts 119°
2026-04-26 15:13 51.94040 1.21781 13465 ft 364 kts 119°
2026-04-26 15:13 51.92843 1.25386 13043 ft 361 kts 120°
2026-04-26 15:14 51.91500 1.28758 12619 ft 351 kts 131°
2026-04-26 15:14 51.89792 1.31520 12221 ft 344 kts 141°
2026-04-26 15:14 51.87824 1.33625 11826 ft 337 kts 153°
2026-04-26 15:14 51.85715 1.35107 11444 ft 332 kts 162°
2026-04-26 15:15 51.83556 1.36420 11064 ft 330 kts 160°
2026-04-26 15:15 51.81423 1.37791 10685 ft 328 kts 160°
2026-04-26 15:15 51.79294 1.39108 10298 ft 327 kts 161°
2026-04-26 15:15 51.77173 1.40422 9900 ft 325 kts 161°
2026-04-26 15:16 51.74995 1.41232 9515 ft 320 kts 176°
2026-04-26 15:16 51.72792 1.41253 9322 ft 311 kts 187°
2026-04-26 15:16 51.70727 1.40517 9313 ft 299 kts 199°
2026-04-26 15:16 51.68843 1.39236 9309 ft 289 kts 207°
2026-04-26 15:17 51.67020 1.37926 9306 ft 284 kts 204°
2026-04-26 15:17 51.65869 1.36957 9300 ft 278 kts 218°
2026-04-26 15:17 51.64479 1.33580 9313 ft 271 kts 246°
2026-04-26 15:17 51.63617 1.30898 9312 ft 269 kts 240°
2026-04-26 15:18 51.62610 1.28370 9312 ft 268 kts 236°
2026-04-26 15:18 51.61560 1.25949 9312 ft 267 kts 236°
2026-04-26 15:18 51.60516 1.23434 9307 ft 266 kts 237°
2026-04-26 15:18 51.59504 1.20986 9306 ft 266 kts 237°
2026-04-26 15:19 51.58488 1.18506 9308 ft 265 kts 237°
2026-04-26 15:19 51.57461 1.16045 9307 ft 265 kts 237°
2026-04-26 15:19 51.56445 1.13576 9259 ft 266 kts 237°
2026-04-26 15:19 51.55395 1.11062 8976 ft 275 kts 236°
2026-04-26 15:20 51.54315 1.08452 8619 ft 285 kts 237°
2026-04-26 15:20 51.53195 1.05769 8238 ft 293 kts 236°
2026-04-26 15:20 51.52054 1.03019 7841 ft 299 kts 237°
2026-04-26 15:20 51.50884 1.00215 7443 ft 303 kts 236°
2026-04-26 15:21 51.49701 0.97385 7051 ft 307 kts 236°
2026-04-26 15:21 51.48545 0.94480 6617 ft 309 kts 242°
2026-04-26 15:21 51.47866 0.91218 6323 ft 307 kts 257°
2026-04-26 15:21 51.47645 0.89012 6320 ft 299 kts 265°
2026-04-26 15:22 51.47804 0.84645 6314 ft 289 kts 273°
2026-04-26 15:22 51.47870 0.81451 6257 ft 285 kts 272°
2026-04-26 15:22 51.47992 0.78305 6127 ft 286 kts 274°
2026-04-26 15:22 51.48123 0.75116 5962 ft 287 kts 273°
2026-04-26 15:23 51.48242 0.71910 5783 ft 289 kts 274°
2026-04-26 15:23 51.48363 0.68682 5597 ft 290 kts 273°
2026-04-26 15:23 51.48435 0.66540 5473 ft 291 kts 273°
2026-04-26 15:23 51.48598 0.62325 5222 ft 269 kts 273°
2026-04-26 15:24 51.48663 0.60383 5072 ft 259 kts 273°
2026-04-26 15:24 51.48768 0.57534 4741 ft 251 kts 274°
2026-04-26 15:24 51.48866 0.54786 4504 ft 242 kts 273°
2026-04-26 15:24 51.48960 0.52141 4311 ft 233 kts 274°
2026-04-26 15:25 51.49051 0.49587 4142 ft 226 kts 273°
2026-04-26 15:25 51.48990 0.47123 3991 ft 218 kts 255°
2026-04-26 15:25 51.48438 0.44935 3940 ft 207 kts 240°
2026-04-26 15:25 51.47711 0.42979 3863 ft 202 kts 239°
2026-04-26 15:26 51.47006 0.41041 3752 ft 200 kts 238°
2026-04-26 15:26 51.46309 0.39157 3610 ft 198 kts 239°
2026-04-26 15:26 51.45620 0.37250 3473 ft 198 kts 239°
2026-04-26 15:26 51.44898 0.35302 3330 ft 207 kts 238°
2026-04-26 15:27 51.44156 0.33278 3184 ft 213 kts 239°
2026-04-26 15:27 51.43417 0.31204 3032 ft 215 kts 244°
2026-04-26 15:27 51.43111 0.28868 2973 ft 214 kts 266°
2026-04-26 15:27 51.43159 0.26513 2974 ft 209 kts 273°
2026-04-26 15:28 51.43233 0.24194 2979 ft 208 kts 273°
2026-04-26 15:28 51.43299 0.21882 2971 ft 207 kts 272°
2026-04-26 15:28 51.43359 0.19543 2754 ft 212 kts 272°
2026-04-26 15:28 51.43421 0.17184 2505 ft 212 kts 272°
2026-04-26 15:29 51.43482 0.14838 2250 ft 209 kts 272°
2026-04-26 15:29 51.43466 0.12537 1983 ft 205 kts 257°
2026-04-26 15:29 51.41802 0.09356 1768 ft 179 kts 193°
2026-04-26 15:30 51.39561 0.08148 1765 ft 160 kts 200°
2026-04-26 15:30 51.38598 0.07482 1641 ft 147 kts 203°
2026-04-26 15:30 51.37688 0.06760 1431 ft 143 kts 202°
2026-04-26 15:31 51.36819 0.06122 1263 ft 129 kts 202°
2026-04-26 15:31 51.35319 0.04971 929 ft 115 kts 199°
2026-04-26 15:31 51.34604 0.04391 764 ft 114 kts 201°
2026-04-26 15:32 51.33429 0.03495 549 ft 102 kts 201°
2026-04-26 15:32 51.32785 0.03004 575 ft 37 kts 206°
2026-04-26 15:32 51.32567 0.02837 572 ft 33 kts 205°
2026-04-26 15:33 51.32408 0.02703 576 ft 13 kts 243°
2026-04-26 15:33 51.32452 0.02563 572 ft 17 kts 343°
2026-04-26 15:33 51.32562 0.02569 570 ft 7 kts 25°
2026-04-26 15:33 51.32624 0.02619 566 ft 13 kts 27°
2026-04-26 15:34 51.32728 0.02697 562 ft 21 kts 26°
2026-04-26 15:34 51.32866 0.02816 575 ft 22 kts 30°
2026-04-26 15:34 51.32982 0.02888 574 ft 14 kts 24°
2026-04-26 15:34 51.33083 0.02967 569 ft 18 kts 24°
2026-04-26 15:35 51.33174 0.02968 566 ft 13 kts 312°
2026-04-26 15:35 51.33173 0.02931 561 ft 2 kts 194°
2026-04-26 15:35 51.33172 0.02931 561 ft 0 kts 194°